Find OneWeb SL0588

NORAD ID: 55153 Int'l Des: 2023-004 Owner: ONEWEBN Country: UK Constellation: oneweb operational
LEOCIRCULARPOLARONEWEB_TYPE

現在のビュー

3D地球を読み込み中...

About OneWeb SL0588

OneWeb SL0588 (NORAD 55153) is a oneweb constellation satellite launched Jan 10, 2023 by ONEWEBN of UK. It operates in LEO, CIRCULAR, POLAR, ONEWEB_TYPE orbit with a mass of 148.00 kg.

OneWeb SL0588について

説明を読み込み中...

次回通過

Passes for default location (London). Set your location on the main map for personalized predictions.

高度履歴

Loading altitude history...

軌道要素

1 55153U 23004P 26171.44679610 .00000043 00000-0 76050-4 0 9991
2 55153 87.9161 334.8204 0002365 94.4912 265.6490 13.18685632170128
Epoch: Jun 20, 2026 • Age: 27 hours

現在のステータス

高度 1219.2 km
速度 7.24 km/s
衛星直下点 -76.94°S, 51.06°E
打ち上げ日 Jan 10, 2023
運用期間 3.4 years
タイプ internet

技術仕様

分類 Payload
質量 148.00 kg
乾燥質量 140.00 kg
総質量 148.00 kg
長さ 1.30 m
直径 1.00 m
スパン 5.00 m
形状 Trapezoid+2 pan
製造者 ONEWUS
バスタイプ ARROW
フェーズステータス In Orbit
所有者/国 ONEWEBN/UK

Most Searched